SA5VCC-15 Weather Reports


Display with metric or nautical units.
time (UTC)temp
F
wind
direction
speed
MPH
gust
MPH
rain 1hr
in
rain 24hr
in
rain mn
in
humidity
%
barometer
mb
20260504120226 56 0.0 0.0 0.00 0.00 0.00 50 996.4
20260504080805 56 0.0 0.0 0.00 0.00 0.00 54 998.2
20260504043508 44 0.0 0.0 0.00 0.00 0.00 79 1000.2
20260504041356 44 0.0 0.0 0.00 0.00 0.00 80 1000.5
20260504035233 43 0.0 0.0 0.00 0.00 0.00 81 1000.7
20260504033121 43 0.0 0.0 0.00 0.00 0.00 81 1000.9
20260504031009 43 0.0 0.0 0.00 0.00 0.00 81 1001.1
20260504024826 43 0.0 0.0 0.00 0.00 0.00 81 1001.3
20260504022702 42 0.0 0.0 0.00 0.00 0.00 81 1001.6
20260504020550 42 0.0 0.0 0.00 0.00 0.00 81 1001.8
20260504012314 41 0.0 0.0 0.00 0.00 0.00 80 1002.3
20260504010202 41 0.0 0.0 0.00 0.00 0.00 80 1002.5
20260504004040 41 0.0 0.0 0.00 0.00 0.00 80 1002.8
20260504001917 41 0.0 0.0 0.00 0.00 0.00 79 1002.8
20260503235754 41 0.0 0.0 0.00 0.00 0.00 79 1002.9
20260503233642 40 0.0 0.0 0.00 0.00 0.00 80 1003.3
20260503231530 39 0.0 0.0 0.00 0.00 0.00 82 1003.3
20260503225405 39 0.0 0.0 0.00 0.00 0.00 80 1003.5
20260503221130 41 0.0 0.0 0.00 0.00 0.00 76 1003.6
20260503215018 41 0.0 0.0 0.00 0.00 0.00 74 1003.8
20260503212906 43 0.0 0.0 0.00 0.00 0.00 72 1004.2
20260503210743 42 0.0 0.0 0.00 0.00 0.00 73 1004.1
20260503204621 42 0.0 0.0 0.00 0.00 0.00 73 1004.3
20260503202457 42 0.0 0.0 0.00 0.00 0.00 71 1004.3
20260503200345 44 0.0 0.0 0.00 0.00 0.00 67 1004.5
20260503194223 45 0.0 0.0 0.00 0.00 0.00 64 1004.7
20260503192111 45 0.0 0.0 0.00 0.00 0.00 63 1004.9
20260503185959 45 0.0 0.0 0.00 0.00 0.00 61 1005.0
20260503183847 46 0.0 0.0 0.00 0.00 0.00 59 1005.0
20260503181735 62 0.0 0.0 0.00 0.00 0.00 37 1004.7
20260503180520 68 0.0 0.0 0.00 0.00 0.00 33 1004.7
20260503180408 67 0.0 0.0 0.00 0.00 0.00 33 1004.6
20260503180339 67 0.0 0.0 0.00 0.00 0.00 34 1004.6
20260503180255 67 0.0 0.0 0.00 0.00 0.00 34 1004.6
20260503180230 0 0.0 0.0 0.00 0.00 0.00
20260503180054 66 0.0 0.0 0.00 0.00 0.00 34 1004.6
20260503180041 0 0.0 0.0 0.00 0.00 0.00
20260503175831 66 0.0 0.0 0.00 0.00 0.00 34 1004.6
20260503175313 66 0.0 0.0 0.00 0.00 0.00 34 1004.6
20260503175250 65 0.0 0.0 0.00 0.00 0.00 36 1004.6
20260503174609 62 0.0 0.0 0.00 0.00 0.00 38 1004.7
20260503174529 61 0.0 0.0 0.00 0.00 0.00 39 1004.7
20260503150438 55 0.0 0.0 0.00 0.00 0.00 43 1005.5